Location: �clusier
(49.9361°N, 2.7869°E)
Time: 06:53:55
(UTC+00:00)

Cosmos 1980 - Pass Details

Date: 16 June 2021
Orbit: 839 x 847 km, 71.0° (Epoch: 02 August)

Event Time Altitude Azimuth Distance (km) Brightness Sun altitude
Exits shadow 22:50:30 24° 163° (SSE) 1,682 4.6 -15.5°
Maximum altitude 22:53:24 42° 109° (ESE) 1,195 4.2 -15.6°
Drops below altitude 10° 22:58:42 10° 40° (NE) 2,481 6.7 -15.8°
Sets 23:01:16 0° 34° (NNE) 3,421 7.6 -15.9°
